Location: Godiavel Galaoual
(15.2485°N, 12.6604°W)
Time: 03:58:08
(UTC+00:00)

N. Korean satellite - Pass Details

Date: 09 December 2021
Orbit: 447 x 491 km, 97.3° (Epoch: 22 January)

Event Time Altitude Azimuth Distance (km) Brightness Sun altitude
Rises 05:40:50 0° 15° (NNE) 2,441 10.1 -19.9°
Reaches altitude 10° 05:42:52 10° 19° (NNE) 1,573 9.1 -19.4°
Maximum altitude 05:46:12 63° 100° (E) 506 6.8 -18.7°
Drops below altitude 10° 05:49:34 10° 183° (S) 1,589 9.4 -17.9°
Sets 05:51:38 0° 186° (S) 2,469 10.3 -17.4°
